User: anonymous   Login
Location: Sawmill Trailhead
(33.5800°N, 116.4497°W)
Time: 12:00:48
(UTC-08:00)
Language:

Uosat F - Orbit

View from above orbital plane
View from above orbital plane
View from above satellite
View from above satellite

Ground track
Ground track

The orbit data is extracted from the following two-line orbital elements,

1 21575U 91050B   17059.95336740 +.00000019 +00000-0 +20406-4 0  9990
2 21575 098.7623 073.7491 0006225 261.0105 099.0378 14.40785330345494
Epoch (UTC): 28 February 2017 22:52:50
Eccentricity: 0.0006225
inclination: 98.7623°
perigee height: 751 km
apogee height: 760 km
right ascension of ascending node: 73.7491°
argument of perigee: 261.0105°
revolutions per day: 14.40785330
mean anomaly at epoch: 99.0378°
orbit number at epoch: 34549

The dashed part of the orbit path shows where the satellite is in the earth's shadow,  

DLR